www.pogodaiklimat.ru

Погода и климат >> Архив погоды >> Пакистан >> Мултан


ПОГОДА в Мултане

  • Прогноз погоды в Мултане
  • Монитор погоды в Мултане

АРХИВ ПОГОДЫ в Мултане

Время (UTC), дата Ветер
(напр.,м/с)
 
Видим.   Явления Облачность Т
(С)
Тd
(С)
f
(%)
Тe
(С)
Тes
(С)
Комфортность P
(гПа)
Po
(гПа)
Тmin
(С)
Tmax
(С)
R
(мм)
R24
(мм)
S
(см)
06 17.02 ЮЗ 2 2000 м мгла 3/0
[Ac trans]
+19.0 +5.9 42 +20 +30 1016.8 1002.4
09 17.02 ЮЗ 4 4000 м мгла 6/0
[Ac trans Ci fib]
+21.5 +5.6 35 +22 +27 комфорт 1013.4 999.0
12 17.02 Ю 4 4000 м мгла 8/0
[Ac trans Ci fib]
+21.0 +8.8 46 +23 +23 комфорт 1010.5 996.1 +22.4
15 17.02 штиль 0 4000 м дым ясно +18.5 +9.0 54 +19 +19 1010.6 1000.0
18 17.02 штиль 0 4000 м дым 4/0
[Ac trans]
+16.5 +8.8 60 +16 +16 1010.8 996.4
21 17.02 штиль 0 4000 м дым 5/0
[Ac trans]
+15.0 +9.2 68 +15 +15 1009.0 994.4
00 18.02 СВ 2 4000 м дым 4/0
[Ac trans]
+13.0 +9.1 77 +12 +12 1007.7 993.4
03 18.02 С 1 2000 м дымка 3/0
[Ac trans]
+12.0 +9.0 82 +12 +14 1008.8 994.5 +11.5
06 18.02 СВ 4 4000 м в посл. час морось {дождь} 9/4 1200 м
[Sc Ac As]
+14.0 +12.2 89 +12 +14 1009.9 995.6 0.8
09 18.02 СВ 2 4000 м дым {дождь, морось} 6/4 1200 м
[Sc diur, vesp As op]
+15.5 +13.7 89 +15 +20 1008.8 1000.0 6
12 18.02 СВ 4 4000 м дым 9/5 1200 м
[Sc diur, vesp Ac As]
+17.0 +12.5 75 +17 +17 1008.0 993.7 +17.6
15 18.02 штиль 0 4000 м дым 3/3 1200 м
[Sc diur, vesp]
+15.0 +11.3 79 +15 +15 1008.7 994.1
18 18.02 штиль 0 2000 м дым ясно +12.0 +10.1 88 +11 +11 1009.9 995.6
21 18.02 штиль 0 2000 м дымка ясно +10.5 +9.5 94 +10 +10 1010.0 1000.0
00 19.02 штиль 0 200 м туман н/о +8.0 +8.0 100 +7 +7 1010.3 995.9
03 19.02 штиль 0 500 м туман 8/0
[Ac trans]
+7.5 +7.5 100 +6 +8 1013.0 998.6 +6.7
06 19.02 штиль 0 1000 м дымка {туман} 8/3 1200 м
[Sc diur, vesp Ac As]
+13.5 +11.6 88 +13 +18 1015.9 1001.6
09 19.02 штиль 0 4000 м дым 9/4 1200 м
[Sc diur, vesp Ac As]
+18.0 +9.5 58 +18 +21 1014.7 1000.0
12 19.02 СВ 4 4000 м дым 9/4 1200 м
[Sc diur, vesp Ac As]
+18.0 +11.7 67 +18 +18 1014.3 1000.0 +18.3
15 19.02 штиль 0 4000 м дым 4/0
[Ac As]
+15.0 +11.3 79 +15 +15 1015.5 1000.0
18 19.02 СВ 2 4000 м дым 8/4 1200 м
[Sc Ac As]
+14.5 +11.7 83 +14 +14 1016.4 1002.0
21 19.02 СВ 1 4000 м дым 8/5 300 м
[Sc Ac As]
+13.0 +10.1 83 +13 +13 1017.0 1000.0
00 20.02 С 2 4000 м дым {морось} 8/1 1200 м
[Sc Ac As]
+13.0 +10.1 83 +13 +13 1016.8 1002.4 0.0
03 20.02 СВ 4 2000 м слаб. морось 10/4 1200 м
[Sc As op]
+12.0 +11.1 94 +10 +10 1018.1 1003.7 +7.2 0.8
06 20.02 СВ 5 2000 м слаб. морось {дождь} 10/4 1200 м
[Sc As op]
+12.0 +11.1 94 +9 +10 1017.8 1003.4 3
09 20.02 С 3 4000 м слаб. морось 10/6 900 м
[St As op]
+12.5 +11.6 94 +11 +11 1015.9 1001.6 0.0
12 20.02 С 3 2000 м слаб. дождь {морось} 10/6 900 м
[St As op]
+12.0 +11.1 94 +10 +10 1015.1 1000.8 +13.1 4
15 20.02 С 2 2000 м слаб. дождь 10/6 900 м
[St As op]
+12.0 +11.1 94 +11 +11 1016.5 1000.0 4
18 20.02 С 3 4000 м в посл. час дождь 10/6 600 м
[Frnb As op]
+11.5 +11.5 100 +9 +9 1017.0 1002.6 10
21 20.02 СВ 3 4000 м дым 10/5 1200 м
[Sc diur, vesp As op]
+11.0 +10.0 94 +9 +9 1016.7 1001.8
00 21.02 С 1 4000 м слаб. морось 10/6 600 м
[Frnb As op]
+11.0 +10.0 94 +11 +11 1015.3 1001.0 10
03 21.02 штиль 0 4000 м дым {морось} 3/0
[Ac trans]
+9.5 +8.5 93 +9 +11 1017.5 1003.1 +9.1 0.0
06 21.02 С 1 4000 м дым {морось} 3/3 1200 м
[Sc]
+15.0 +11.3 79 +16 +25 1018.5 1004.1
09 21.02 СЗ 2 4000 м дым 3/3 1200 м
[Sc]
+18.0 +11.7 67 +19 +26 1016.9 1002.3
12 21.02 штиль 0 4000 м дым 3/3 1200 м
[Sc]
+20.0 +9.8 52 +21 +22 комфорт 1016.1 1001.7 +20.5
15 21.02 штиль 0 4000 м дым ясно +17.0 +11.5 70 +17 +17 1017.3 1000.0
18 21.02 штиль 0 4000 м дым ясно +15.0 +11.3 79 +15 +15 1018.4 1004.0
21 21.02 штиль 0 4000 м дым 1/1 1200 м
[Sc]
+13.5 +11.6 88 +13 +13 1017.6 1000.0
00 22.02 штиль 0 2000 м дымка 1/0
[Ac trans]
+12.5 +11.6 94 +12 +12 1014.7 1003.0
03 22.02 С 1 <50 м туман н/о +10.5 +10.5 100 +10 +10 1019.1 1004.7 +9.3
06 22.02 С 3 4000 м дым {туман} 3/3 1200 м
[Sc]
+17.5 +11.1 66 +17 +24 1021.3 1006.9
09 22.02 СЗ 2 10 км 3/3 1200 м
[Cu hum]
+20.0 +7.4 44 +22 +29 комфорт 1019.6 1005.1
12 22.02 штиль 0 4000 м мгла 3/3 1200 м
[Sc diur, vesp]
+20.0 +7.4 44 +21 +21 комфорт 1018.6 1004.2 +21.1
15 22.02 штиль 0 4000 м дым 9/3 1200 м
[Sc Ac As]
+17.0 +9.4 61 +17 +17 1019.0 1000.0
18 22.02 штиль 0 4000 м дым 3/0
[Ac trans]
+14.0 +10.2 78 +14 +14 1019.3 1004.9
21 22.02 штиль 0 4000 м дым ясно +12.0 +9.0 82 +11 +11 1018.5 1003.6
00 23.02 штиль 0 4000 м дым ясно +11.0 +9.0 87 +10 +10 1017.1 1002.7
03 23.02 штиль 0 2000 м дымка 3/0
[Ac trans]
+10.0 +7.9 87 +9 +11 1018.2 1003.8 +8.7
06 23.02 штиль 0 4000 м мгла 3/0
[Ci fib]
+19.5 +7.2 45 +20 +35 опасность
простуды
1018.4 1004.0
09 23.02 ЮЗ 1 4000 м мгла 1/0
[Ac trans]
+21.5 +7.0 39 +22 +34 комфорт 1016.1 1000.0
12 23.02 Ю 2 4000 м мгла 4/0
[Ac trans Ci ing]
+21.5 +8.3 43 +23 +23 комфорт 1013.8 999.4 +23.2
15 23.02 Ю 1 4000 м дым 4/0
[Ac trans]
+18.0 +11.7 67 +19 +19 1014.1 1000.0
18 23.02 штиль 0 4000 м дым ясно +16.0 +11.4 74 +16 +16 1014.3 1000.0
21 23.02 штиль 0 4000 м дым ясно +14.5 +10.7 78 +14 +14 1012.8 1000.0
00 24.02 штиль 0 2000 м дым ясно +12.0 +10.1 88 +11 +11 1011.3 997.0
03 24.02 Ю 1 1000 м дымка ясно +12.0 +9.0 82 +12 +14 1012.3 998.0 +9.9

 

Местоположение метеостанции Мултан (Пакистан): широта 30.20 долгота 71.43 высота над уровнем моря 123 м.

В архиве по умолчанию представлена погода в Мултане за последнюю неделю. Архивные данные за месяц целиком и за предыдущие месяцы, начиная с января 2011 года, Вы можете получить, выбрав интересующий диапазон дат из раскрывающегося списка и нажав кнопку "Ввод!".


*Определитесь, кто Вы:
робот инопланетянин человек

Внимание! Время в таблицах - всемирное. Для получения местного времени необходимо прибавить поправку, которая равна 5 ч.

Смотрите также архив погоды в соседних городах и на ближайших метеорологических станциях:

Погода в Бахавалпуре (Пакистан) (95 км)
Погода на Авиабазе Raifiqui (Пакистан) (98 км)
Погода в Бархане (Пакистан) (168 км)
Погода в Бахавалнагаре (Пакистан) (177 км)
Погода в Дера-Исмаил-Хане (Пакистан) (187 км)
Погода в Ханпуре (Пакистан) (187 км)
Погода в Фейсалабаде (Пакистан) (210 км)
Погода в Зхобе (Пакистан) (227 км)
Погода в Саргодхе (Пакистан) (237 км)
Погода в Шри-Ганганагаре (Раджастхан, Индия) (239 км)

Пояснения к столбцам:

Ветер - указаны скорость ветра в м/с - средняя за 10 мин, порывы в срок и между сроками (в фигурных скобках) и направление, откуда дует ветер: С - северный, СВ - северо-восточный, В - восточный, ЮВ - юго-восточный, Ю - южный, ЮЗ - юго-западный, З - западный, СЗ - северо-западный.
Видимость - горизонтальная дальность видимости в метрах или километрах. При видимости от 1 до 10 км при отсутствии осадков обычно наблюдается дымка, при ухудшении видимости до 1 км и менее - туман. В сухую погоду видимость может ухудшаться дымом, пылью или мглою.
Явления - указаны атмосферные явления, наблюдавшиеся в срок или в последний час перед сроком; фигурными скобками обозначены явления, наблюдавшиеся между сроками (за 1-3 часа до срока); квадратными скобками обозначены град или гололедные отложения с указанием их диаметра в мм.
Облачность - указаны через наклонную черту общая и нижняя облачность в баллах и высота нижней границы облаков в метрах; квадратными скобками обозначены формы облаков: Ci - перистые, Cs - перисто-слоистые, Cc - перисто-кучевые, Ac - высококучевые, As - высокослоистые, Sc - слоисто-кучевые, Ns - слоисто-дождевые, Cu - кучевые, Cb - кучево-дождевые. Подробнее классификацию облаков см. в Атласе облаков (PDF).
T - Температура воздуха - температура, измеренная на высоте 2 м над землей.
Td - Температура точки росы - температура, при понижении до которой содержащийся в воздухе водяной пар достигнет насыщения.
f - Относительная влажность воздуха - влажноcть воздуха, измеренная на высоте 2 м над землей.
Te - Эффективная температура - температура, которую ощущает одетый по сезону человек в тени. Характеристика душности погоды. При расчете учитывается влияние влажности воздуха и скорости ветра на теплоощущения человека.
Tes - Эффективная температура на солнце - температура, которую ощущает человек, с поправкой на солнечный нагрев. Характеристика знойности погоды. Зависит от высоты солнца над горизонтом, облачности и скорости ветра. Ночью, в пасмурную погоду, а также при ветре 12 м/с и более поправка равна нулю.
P - Атмосферное давление - приведенное к уровню моря атмосферное давление.
Po - Атмосферное давление - измеренное на уровне метеостанции атмосферное давление.
Tmin - Минимальная температура - минимум температуры воздуха на высоте 2 м над землей.
Tmax - Максимальная температура - максимум температуры воздуха на высоте 2 м над землей.
R - Количество осадков - Количество выпавших осадков за период времени, мм. При наведении курсора мыши на число - период времени, за который выпало указанное количество осадков.
R24 - Количество осадков - Количество выпавших осадков за 24 часа, мм.
S - Снежный покров - Высота снежного покрова, см. При наведении курсора мыши на число - состояние снежного покрова и степень покрытия местности в баллах.